| time (UTC) | temp F | wind direction | speed knots | gust knots | rain 1hr in | rain 24hr in | rain mn in | humidity % | barometer mb |
| 20260906155458 | 104 | 10 | 3.5 | 6.1 | 0.00 | 0.00 | 0.00 | 48 | 1006.1 |
| 20260906154958 | 103 | 271 | 0.9 | 4.3 | 0.00 | 0.00 | 0.00 | 54 | 1006.1 |
| 20260906154458 | 101 | 284 | 2.6 | 4.3 | 0.00 | 0.00 | 0.00 | 55 | 1006.1 |
| 20260906153958 | 100 | 270 | 2.6 | 5.2 | 0.00 | 0.00 | 0.00 | 57 | 1006.2 |
| 20260906153458 | 100 | 339 | 1.7 | 7.0 | 0.00 | 0.00 | 0.00 | 54 | 1006.2 |
| 20260906152958 | 100 | 356 | 2.6 | 7.0 | 0.00 | 0.00 | 0.00 | 52 | 1006.2 |
| 20260906152459 | 109 | 270 | 1.7 | 4.3 | 0.00 | 0.00 | 0.00 | 57 | 1006.2 |
| 20260906151958 | 100 | 13 | 0.9 | 6.1 | 0.00 | 0.00 | 0.00 | 56 | 1006.2 |
| 20260906151458 | 98 | 34 | 1.7 | 7.0 | 0.00 | 0.00 | 0.00 | 55 | 1006.2 |
| 20260906150959 | 108 | 19 | 2.6 | 7.8 | 0.00 | 0.00 | 0.00 | 64 | 1006.3 |
| 20260906150458 | 96 | 27 | 0.9 | 7.8 | 0.00 | 0.00 | 0.00 | 58 | 1006.4 |
| 20260906145958 | 96 | 3 | 3.5 | 6.1 | 0.00 | 0.00 | 0.00 | 58 | 1006.2 |
| 20260906145459 | 103 | 319 | 4.3 | 6.1 | 0.00 | 0.00 | 0.00 | 58 | 1006.1 |
| 20260906144958 | 96 | 338 | 3.5 | 6.1 | 0.00 | 0.00 | 0.00 | 56 | 1006.3 |
| 20260906144458 | 96 | 360 | 1.7 | 6.1 | 0.00 | 0.00 | 0.00 | 58 | 1006.1 |
| 20260906143958 | 94 | 333 | 0.9 | 3.5 | 0.00 | 0.00 | 0.00 | 68 | 1006.2 |
| 20260906143458 | 94 | 246 | 3.5 | 3.5 | 0.00 | 0.00 | 0.00 | 71 | 1006.2 |
| 20260906142958 | 93 | 224 | 1.7 | 3.5 | 0.00 | 0.00 | 0.00 | 70 | 1006.2 |
| 20260906142458 | 93 | 238 | 3.5 | 3.5 | 0.00 | 0.00 | 0.00 | 71 | 1006.2 |
| 20260906141958 | 92 | 276 | 1.7 | 3.5 | 0.00 | 0.00 | 0.00 | 74 | 1006.3 |
| 20260906141458 | 93 | 318 | 2.6 | 3.5 | 0.00 | 0.00 | 0.00 | 74 | 1006.3 |
| 20260906140958 | 92 | 228 | 2.6 | 3.5 | 0.00 | 0.00 | 0.00 | 75 | 1006.3 |
| 20260906140458 | 90 | 257 | 2.6 | 3.5 | 0.00 | 0.00 | 0.00 | 74 | 1006.3 |
| 20260906135958 | 90 | 237 | 2.6 | 3.5 | 0.00 | 0.00 | 0.00 | 76 | 1006.3 |
| 20260906135459 | 92 | 303 | 2.6 | 3.5 | 0.00 | 0.00 | 0.00 | 80 | 1006.3 |
| 20260906134958 | 90 | 267 | 1.7 | 3.5 | 0.00 | 0.00 | 0.00 | 80 | 1006.3 |
| 20260906134458 | 89 | 277 | 1.7 | 3.5 | 0.00 | 0.00 | 0.00 | 82 | 1006.4 |
| 20260906133958 | 89 | 262 | 2.6 | 3.5 | 0.00 | 0.00 | 0.00 | 85 | 1006.4 |
| 20260906133458 | 87 | 257 | 2.6 | 3.5 | 0.00 | 0.00 | 0.00 | 85 | 1006.4 |
| 20260906132959 | 88 | 269 | 2.6 | 4.3 | 0.00 | 0.00 | 0.00 | 86 | 1006.3 |
| 20260906132458 | 91 | 266 | 3.5 | 4.3 | 0.00 | 0.00 | 0.00 | 86 | 1006.2 |
| 20260906131958 | 87 | 261 | 2.6 | 3.5 | 0.00 | 0.00 | 0.00 | 86 | 1006.1 |
| 20260906131459 | 88 | 254 | 1.7 | 2.6 | 0.00 | 0.00 | 0.00 | 85 | 1006.2 |
| 20260906130958 | 91 | 320 | 0.9 | 1.7 | 0.00 | 0.00 | 0.00 | 87 | 1006.2 |
| 20260906130458 | 87 | 233 | 0.9 | 1.7 | 0.00 | 0.00 | 0.00 | 86 | 1006.1 |
| 20260906125958 | 87 | 157 | 0.9 | 1.7 | 0.00 | 0.00 | 0.00 | 87 | 1006.1 |
| 20260906125458 | 102 | 155 | 1.7 | 1.7 | 0.00 | 0.00 | 0.00 | 97 | 1006.2 |
| 20260906124958 | 87 | 157 | 1.7 | 1.7 | 0.00 | 0.00 | 0.00 | 92 | 1006.1 |
| 20260906124458 | 90 | 166 | 0.9 | 1.7 | 0.00 | 0.00 | 0.00 | 96 | 1006.0 |
| 20260906123959 | 87 | 163 | 0.9 | 1.7 | 0.00 | 0.00 | 0.00 | 97 | 1006.0 |
| 20260906123458 | 87 | 192 | 0.9 | 2.6 | 0.00 | 0.00 | 0.00 | 98 | 1006.0 |
| 20260906122958 | 86 | 181 | 0.9 | 2.6 | 0.00 | 0.00 | 0.00 | 98 | 1005.9 |
| 20260906122458 | 85 | 160 | 1.7 | 2.6 | 0.00 | 0.00 | 0.00 | 99 | 1005.8 |
| 20260906121958 | 85 | 151 | 1.7 | 2.6 | 0.00 | 0.00 | 0.00 | 100 | 1005.7 |
| 20260906121459 | 85 | 142 | 1.7 | 1.7 | 0.00 | 0.00 | 0.00 | 100 | 1005.7 |
| 20260906120958 | 85 | 86 | 0.9 | 0.9 | 0.00 | 0.00 | 0.00 | 100 | 1005.6 |
| 20260906120458 | 84 | 13 | 0.0 | 0.9 | 0.00 | 0.00 | 0.00 | 100 | 1005.5 |
| 20260906115958 | 84 | 70 | 0.9 | 0.9 | 0.00 | 0.00 | 0.00 | 100 | 1005.5 |
| 20260906115458 | 84 | 148 | 0.0 | 1.7 | 0.00 | 0.00 | 0.00 | 100 | 1005.4 |
| 20260906114958 | 84 | 132 | 0.9 | 1.7 | 0.00 | 0.00 | 0.00 | 100 | 1005.3 |
| 20260906114458 | 84 | 230 | 0.9 | 1.7 | 0.00 | 0.00 | 0.00 | 100 | 1005.3 |
| 20260906113958 | 84 | 268 | 0.9 | 1.7 | 0.00 | 0.00 | 0.00 | 100 | 1005.2 |
| 20260906113458 | 84 | 308 | 1.7 | 3.5 | 0.00 | 0.00 | 0.00 | 100 | 1005.2 |
| 20260906112958 | 84 | 278 | 0.9 | 3.5 | 0.00 | 0.00 | 0.00 | 100 | 1005.1 |
| 20260906112458 | 84 | 181 | 2.6 | 3.5 | 0.00 | 0.00 | 0.00 | 100 | 1005.1 |
| 20260906111958 | 84 | 181 | 3.5 | 3.5 | 0.00 | 0.00 | 0.00 | 100 | 1005.0 |
| 20260906111458 | 84 | 162 | 1.7 | 1.7 | 0.00 | 0.00 | 0.00 | 100 | 1005.0 |
| 20260906110958 | 84 | 188 | 0.9 | 2.6 | 0.00 | 0.00 | 0.00 | 100 | 1005.0 |
| 20260906110458 | 84 | 192 | 1.7 | 3.5 | 0.00 | 0.00 | 0.00 | 100 | 1005.0 |
| 20260906105959 | 83 | 226 | 2.6 | 3.5 | 0.00 | 0.00 | 0.00 | 100 | 1004.8 |
| 20260906105458 | 84 | 239 | 1.7 | 2.6 | 0.00 | 0.00 | 0.00 | 99 | 1004.7 |
| 20260906104958 | 84 | 270 | 1.7 | 2.6 | 0.00 | 0.00 | 0.00 | 99 | 1004.7 |
| 20260906104458 | 84 | 262 | 2.6 | 2.6 | 0.00 | 0.00 | 0.00 | 99 | 1004.7 |
| 20260906103958 | 84 | 242 | 1.7 | 2.6 | 0.00 | 0.00 | 0.00 | 99 | 1005.0 |
| 20260906103458 | 84 | 250 | 1.7 | 1.7 | 0.00 | 0.00 | 0.00 | 100 | 1004.9 |
| 20260906102958 | 84 | 301 | 1.7 | 2.6 | 0.00 | 0.00 | 0.00 | 100 | 1004.6 |
| 20260906102458 | 84 | 341 | 1.7 | 2.6 | 0.00 | 0.00 | 0.00 | 99 | 1004.8 |
| 20260906101958 | 84 | 358 | 1.7 | 2.6 | 0.00 | 0.00 | 0.00 | 98 | 1004.7 |
| 20260906101458 | 84 | 10 | 1.7 | 1.7 | 0.00 | 0.00 | 0.00 | 99 | 1004.7 |
| 20260906100958 | 84 | 43 | 0.9 | 1.7 | 0.00 | 0.00 | 0.00 | 99 | 1004.8 |
| 20260906100458 | 84 | 160 | 0.0 | 3.5 | 0.00 | 0.00 | 0.00 | 98 | 1004.7 |
| 20260906095958 | 84 | 142 | 1.7 | 3.5 | 0.00 | 0.00 | 0.00 | 98 | 1004.8 |
| 20260906095459 | 84 | 119 | 2.6 | 2.6 | 0.00 | 0.00 | 0.00 | 99 | 1004.7 |
| 20260906094958 | 84 | 76 | 1.7 | 2.6 | 0.00 | 0.00 | 0.00 | 99 | 1004.7 |
| 20260906094458 | 84 | 60 | 0.9 | 3.5 | 0.00 | 0.00 | 0.00 | 99 | 1004.7 |
| 20260906093958 | 84 | 23 | 2.6 | 3.5 | 0.00 | 0.00 | 0.00 | 98 | 1004.7 |
| 20260906093458 | 84 | 10 | 0.9 | 1.7 | 0.00 | 0.00 | 0.00 | 96 | 1004.7 |
| 20260906092959 | 84 | 116 | 1.7 | 2.6 | 0.00 | 0.00 | 0.00 | 97 | 1004.7 |
| 20260906092458 | 85 | 72 | 1.7 | 2.6 | 0.00 | 0.00 | 0.00 | 98 | 1004.6 |
| 20260906091958 | 84 | 60 | 1.7 | 2.6 | 0.00 | 0.00 | 0.00 | 98 | 1004.6 |
| 20260906091458 | 84 | 52 | 0.9 | 2.6 | 0.00 | 0.00 | 0.00 | 97 | 1004.6 |
| 20260906090958 | 85 | 52 | 0.9 | 2.6 | 0.00 | 0.00 | 0.00 | 96 | 1004.6 |
| 20260906090459 | 85 | 125 | 1.7 | 3.5 | 0.00 | 0.00 | 0.00 | 95 | 1004.5 |
| 20260906085958 | 85 | 129 | 1.7 | 5.2 | 0.00 | 0.00 | 0.00 | 95 | 1004.4 |
| 20260906085458 | 86 | 149 | 3.5 | 5.2 | 0.00 | 0.00 | 0.00 | 96 | 1004.4 |
| 20260906084958 | 85 | 174 | 3.5 | 4.3 | 0.00 | 0.00 | 0.00 | 95 | 1004.2 |
| 20260906084458 | 85 | 162 | 2.6 | 4.3 | 0.00 | 0.00 | 0.00 | 95 | 1004.1 |
| 20260906083958 | 86 | 177 | 4.3 | 4.3 | 0.00 | 0.00 | 0.00 | 100 | 1004.1 |
| 20260906083458 | 86 | 115 | 1.7 | 1.7 | 0.00 | 0.00 | 0.00 | 95 | 1004.2 |
| 20260906082958 | 85 | 91 | 0.9 | 0.9 | 0.00 | 0.00 | 0.00 | 96 | 1004.1 |
| 20260906082458 | 85 | 128 | 0.9 | 0.9 | 0.00 | 0.00 | 0.00 | 95 | 1004.1 |
| 20260906081958 | 86 | 128 | 0.9 | 1.7 | 0.00 | 0.00 | 0.00 | 94 | 1004.0 |
| 20260906081458 | 86 | 269 | 0.9 | 1.7 | 0.00 | 0.00 | 0.00 | 94 | 1004.0 |
| 20260906080959 | 86 | 267 | 1.7 | 1.7 | 0.00 | 0.00 | 0.00 | 94 | 1003.9 |
| 20260906080459 | 86 | 272 | 1.7 | 1.7 | 0.00 | 0.00 | 0.00 | 94 | 1003.8 |
| 20260906075958 | 86 | 263 | 1.7 | 1.7 | 0.00 | 0.00 | 0.00 | 94 | 1003.8 |
| 20260906075458 | 86 | 234 | 1.7 | 1.7 | 0.00 | 0.00 | 0.00 | 94 | 1003.8 |
| 20260906074958 | 91 | 218 | 1.7 | 1.7 | 0.00 | 0.00 | 0.00 | 100 | 1003.9 |
| 20260906074459 | 86 | 246 | 1.7 | 1.7 | 0.00 | 0.00 | 0.00 | 94 | 1003.9 |
| 20260906073959 | 85 | 204 | 1.7 | 2.6 | 0.00 | 0.00 | 0.00 | 95 | 1003.9 |
| 20260906073458 | 85 | 195 | 1.7 | 2.6 | 0.00 | 0.00 | 0.00 | 96 | 1004.1 |
| 20260906072958 | 85 | 169 | 1.7 | 2.6 | 0.00 | 0.00 | 0.00 | 95 | 1004.1 |
| 20260906072458 | 85 | 44 | 0.0 | 2.6 | 0.00 | 0.00 | 0.00 | 95 | 1004.1 |
| 20260906071958 | 85 | 324 | 1.7 | 2.6 | 0.00 | 0.00 | 0.00 | 94 | 1004.1 |
| 20260906071458 | 85 | 330 | 2.6 | 2.6 | 0.00 | 0.00 | 0.00 | 94 | 1004.1 |
| 20260906070958 | 85 | 319 | 1.7 | 1.7 | 0.00 | 0.00 | 0.00 | 91 | 1004.1 |
| 20260906070458 | 85 | 298 | 0.9 | 1.7 | 0.00 | 0.00 | 0.00 | 91 | 1004.2 |
| 20260906065959 | 85 | 240 | 0.9 | 3.5 | 0.00 | 0.00 | 0.00 | 92 | 1004.2 |
| 20260906065459 | 85 | 213 | 1.7 | 3.5 | 0.00 | 0.00 | 0.00 | 92 | 1004.3 |
| 20260906064958 | 85 | 224 | 1.7 | 1.7 | 0.00 | 0.00 | 0.00 | 92 | 1004.3 |
| 20260906064458 | 86 | 183 | 0.9 | 1.7 | 0.00 | 0.00 | 0.00 | 92 | 1004.3 |
| 20260906063959 | 86 | 110 | 1.7 | 1.7 | 0.00 | 0.00 | 0.00 | 92 | 1004.3 |
| 20260906063458 | 86 | 4 | 0.0 | 2.6 | 0.00 | 0.00 | 0.00 | 90 | 1004.3 |
| 20260906062958 | 86 | 332 | 1.7 | 2.6 | 0.00 | 0.00 | 0.00 | 90 | 1004.4 |
| 20260906062458 | 86 | 313 | 1.7 | 2.6 | 0.00 | 0.00 | 0.00 | 91 | 1004.4 |
| 20260906061958 | 86 | 319 | 1.7 | 2.6 | 0.00 | 0.00 | 0.00 | 92 | 1004.5 |
| 20260906061458 | 86 | 333 | 0.9 | 1.7 | 0.00 | 0.00 | 0.00 | 91 | 1004.6 |
| 20260906060958 | 87 | 246 | 0.0 | 0.9 | 0.00 | 0.00 | 0.00 | 90 | 1004.6 |
| 20260906060459 | 87 | 257 | 0.9 | 0.9 | 0.00 | 0.00 | 0.00 | 90 | 1004.5 |
| 20260906055958 | 86 | 216 | 0.9 | 1.7 | 0.00 | 0.00 | 0.00 | 90 | 1004.5 |
| 20260906055459 | 87 | 28 | 0.9 | 1.7 | 0.00 | 0.00 | 0.00 | 90 | 1004.7 |
| 20260906054958 | 87 | 28 | 0.0 | 3.5 | 0.00 | 0.00 | 0.00 | 90 | 1004.6 |
| 20260906054458 | 87 | 169 | 1.7 | 6.1 | 0.00 | 0.00 | 0.00 | 92 | 1004.6 |
| 20260906053959 | 104 | 165 | 3.5 | 9.6 | 0.00 | 0.00 | 0.00 | 93 | 1004.6 |
| 20260906053458 | 87 | 169 | 5.2 | 9.6 | 0.00 | 0.00 | 0.00 | 94 | 1004.6 |
| 20260906052958 | 87 | 9 | 0.9 | 1.7 | 0.00 | 0.00 | 0.00 | 94 | 1004.4 |
| 20260906052459 | 86 | 45 | 0.9 | 0.9 | 0.00 | 0.00 | 0.00 | 100 | 1004.4 |
| 20260906051958 | 87 | 64 | 0.9 | 0.9 | 0.00 | 0.00 | 0.00 | 94 | 1004.4 |
| 20260906051458 | 86 | 56 | 0.9 | 1.7 | 0.00 | 0.00 | 0.00 | 92 | 1004.3 |
| 20260906050958 | 86 | 20 | 0.9 | 1.7 | 0.00 | 0.00 | 0.00 | 91 | 1004.3 |
| 20260906050458 | 87 | 24 | 0.9 | 1.7 | 0.00 | 0.00 | 0.00 | 91 | 1004.3 |
| 20260906045959 | 87 | 54 | 0.9 | 1.7 | 0.00 | 0.00 | 0.00 | 90 | 1004.2 |
| 20260906045458 | 87 | 31 | 0.9 | 1.7 | 0.00 | 0.00 | 0.00 | 91 | 1004.3 |
| 20260906044958 | 86 | 23 | 0.9 | 1.7 | 0.00 | 0.00 | 0.00 | 99 | 1004.3 |
| 20260906044458 | 86 | 27 | 0.9 | 0.9 | 0.00 | 0.00 | 0.00 | 90 | 1004.3 |
| 20260906043958 | 87 | 92 | 0.9 | 1.7 | 0.00 | 0.00 | 0.00 | 90 | 1004.2 |
| 20260906043458 | 87 | 104 | 0.9 | 1.7 | 0.00 | 0.00 | 0.00 | 89 | 1004.2 |
| 20260906042958 | 88 | 136 | 1.7 | 2.6 | 0.00 | 0.00 | 0.00 | 89 | 1004.1 |
| 20260906042458 | 87 | 148 | 1.7 | 2.6 | 0.00 | 0.00 | 0.00 | 89 | 1004.0 |
| 20260906041959 | 88 | 155 | 2.6 | 2.6 | 0.00 | 0.00 | 0.00 | 91 | 1004.0 |
| 20260906041459 | 106 | 147 | 2.6 | 2.6 | 0.00 | 0.00 | 0.00 | 88 | 1003.9 |
| 20260906040958 | 87 | 178 | 1.7 | 1.7 | 0.00 | 0.00 | 0.00 | 89 | 1003.9 |
| 20260906040459 | 87 | 220 | 1.7 | 1.7 | 0.00 | 0.00 | 0.00 | 89 | 1003.9 |
| 20260906035958 | 87 | 245 | 1.7 | 1.7 | 0.00 | 0.00 | 0.00 | 89 | 1004.0 |
| 20260906035458 | 87 | 252 | 1.7 | 1.7 | 0.00 | 0.00 | 0.00 | 90 | 1004.0 |
| 20260906034958 | 87 | 256 | 0.9 | 0.9 | 0.00 | 0.00 | 0.00 | 89 | 1004.0 |
| 20260906034458 | 87 | 309 | 0.9 | 0.9 | 0.00 | 0.00 | 0.00 | 88 | 1004.0 |
| 20260906033958 | 105 | 341 | 0.0 | 0.9 | 0.00 | 0.00 | 0.00 | 88 | 1004.0 |
| 20260906033458 | 87 | 1 | 0.0 | 0.9 | 0.00 | 0.00 | 0.00 | 88 | 1004.2 |
| 20260906032959 | 87 | 19 | 0.9 | 1.7 | 0.00 | 0.00 | 0.00 | 88 | 1004.3 |
| 20260906032458 | 88 | 14 | 0.9 | 1.7 | 0.00 | 0.00 | 0.00 | 87 | 1004.3 |
| 20260906031958 | 87 | 346 | 0.9 | 1.7 | 0.00 | 0.00 | 0.00 | 86 | 1004.4 |
| 20260906031459 | 87 | 3 | 0.9 | 1.7 | 0.00 | 0.00 | 0.00 | 87 | 1004.4 |
| 20260906030959 | 87 | 17 | 0.9 | 0.9 | 0.00 | 0.00 | 0.00 | 89 | 1004.4 |
| 20260906030458 | 87 | 84 | 0.9 | 0.9 | 0.00 | 0.00 | 0.00 | 89 | 1004.4 |
| 20260906025958 | 87 | 148 | 0.0 | 0.9 | 0.00 | 0.00 | 0.00 | 88 | 1004.4 |
| 20260906025458 | 87 | 75 | 0.0 | 0.9 | 0.00 | 0.00 | 0.00 | 88 | 1004.4 |
| 20260906024958 | 87 | 106 | 0.0 | 0.9 | 0.00 | 0.00 | 0.00 | 87 | 1004.5 |
| 20260906024458 | 88 | 162 | 0.9 | 0.9 | 0.00 | 0.00 | 0.00 | 87 | 1004.4 |
| 20260906023958 | 88 | 167 | 0.9 | 0.9 | 0.00 | 0.00 | 0.00 | 87 | 1004.3 |
| 20260906023458 | 88 | 131 | 0.9 | 0.9 | 0.00 | 0.00 | 0.00 | 86 | 1004.4 |
| 20260906022959 | 88 | 348 | 0.0 | 0.9 | 0.00 | 0.00 | 0.00 | 86 | 1004.4 |
| 20260906022458 | 88 | 234 | 0.9 | 0.9 | 0.00 | 0.00 | 0.00 | 84 | 1004.4 |
| 20260906021958 | 88 | 24 | 0.0 | 0.9 | 0.00 | 0.00 | 0.00 | 84 | 1004.4 |
| 20260906021459 | 89 | 193 | 0.9 | 0.9 | 0.00 | 0.00 | 0.00 | 84 | 1004.4 |
| 20260906020958 | 91 | 129 | 0.9 | 1.7 | 0.00 | 0.00 | 0.00 | 85 | 1004.3 |
| 20260906020458 | 91 | 234 | 0.9 | 1.7 | 0.00 | 0.00 | 0.00 | 83 | 1004.2 |
| 20260906015958 | 90 | 280 | 0.9 | 0.9 | 0.00 | 0.00 | 0.00 | 85 | 1004.2 |
| 20260906015459 | 100 | 270 | 0.9 | 1.7 | 0.00 | 0.00 | 0.00 | 80 | 1004.0 |
| 20260906014958 | 89 | 276 | 0.9 | 2.6 | 0.00 | 0.00 | 0.00 | 81 | 1004.0 |
| 20260906014458 | 88 | 320 | 1.7 | 2.6 | 0.00 | 0.00 | 0.00 | 81 | 1003.9 |
| 20260906013958 | 89 | 341 | 1.7 | 1.7 | 0.00 | 0.00 | 0.00 | 82 | 1003.9 |
| 20260906013458 | 89 | 324 | 0.9 | 0.9 | 0.00 | 0.00 | 0.00 | 76 | 1003.8 |
| 20260906012958 | 89 | 343 | 0.9 | 0.9 | 0.00 | 0.00 | 0.00 | 77 | 1003.8 |
| 20260906012458 | 89 | 95 | 0.0 | 0.9 | 0.00 | 0.00 | 0.00 | 75 | 1003.8 |
| 20260906011958 | 90 | 224 | 0.0 | 0.9 | 0.00 | 0.00 | 0.00 | 74 | 1003.7 |
| 20260906011458 | 90 | 201 | 0.9 | 1.7 | 0.00 | 0.00 | 0.00 | 73 | 1003.7 |
| 20260906010958 | 90 | 198 | 0.9 | 2.6 | 0.00 | 0.00 | 0.00 | 74 | 1003.6 |
| 20260906010458 | 91 | 184 | 1.7 | 2.6 | 0.00 | 0.00 | 0.00 | 72 | 1003.4 |
| 20260906005958 | 91 | 171 | 1.7 | 2.6 | 0.00 | 0.00 | 0.00 | 71 | 1003.4 |
| 20260906005458 | 91 | 170 | 2.6 | 2.6 | 0.00 | 0.00 | 0.00 | 71 | 1003.2 |
| 20260906004958 | 94 | 175 | 1.7 | 1.7 | 0.00 | 0.00 | 0.00 | 69 | 1003.3 |
| 20260906004458 | 93 | 189 | 1.7 | 1.7 | 0.00 | 0.00 | 0.00 | 70 | 1003.3 |
| 20260906003958 | 93 | 213 | 1.7 | 1.7 | 0.00 | 0.00 | 0.00 | 73 | 1003.3 |
| 20260906003458 | 94 | 309 | 0.9 | 2.6 | 0.00 | 0.00 | 0.00 | 67 | 1003.3 |
| 20260906002958 | 94 | 330 | 0.9 | 2.6 | 0.00 | 0.00 | 0.00 | 66 | 1003.6 |
| 20260906002459 | 95 | 140 | 0.9 | 0.9 | 0.00 | 0.00 | 0.00 | 61 | 1003.3 |
| 20260906001958 | 96 | 181 | 0.9 | 1.7 | 0.00 | 0.00 | 0.00 | 59 | 1003.3 |
| 20260906001458 | 96 | 105 | 0.9 | 1.7 | 0.00 | 0.00 | 0.00 | 59 | 1003.3 |
| 20260906000958 | 96 | 272 | 0.9 | 2.6 | 0.00 | 0.00 | 0.00 | 59 | 1003.3 |
| 20260906000458 | 97 | 180 | 1.7 | 2.6 | 0.00 | 0.00 | 0.00 | 58 | 1003.3 |
| 20260905235958 | 98 | 169 | 1.7 | 2.6 | 0.00 | 0.00 | 0.00 | 56 | 1003.4 |
| 20260905235458 | 98 | 159 | 1.7 | 2.6 | 0.00 | 0.00 | 0.00 | 52 | 1003.3 |
| 20260905234958 | 98 | 163 | 1.7 | 3.5 | 0.00 | 0.00 | 0.00 | 51 | 1003.4 |
| 20260905234458 | 98 | 124 | 1.7 | 3.5 | 0.00 | 0.00 | 0.00 | 52 | 1003.5 |
| 20260905233958 | 98 | 135 | 3.5 | 3.5 | 0.00 | 0.00 | 0.00 | 50 | 1003.4 |
| 20260905233458 | 98 | 140 | 2.6 | 3.5 | 0.00 | 0.00 | 0.00 | 50 | 1003.4 |
| 20260905232958 | 98 | 160 | 1.7 | 3.5 | 0.00 | 0.00 | 0.00 | 50 | 1003.4 |
| 20260905232458 | 98 | 137 | 1.7 | 3.5 | 0.00 | 0.00 | 0.00 | 49 | 1003.4 |
| 20260905231958 | 98 | 155 | 2.6 | 4.3 | 0.00 | 0.00 | 0.00 | 49 | 1003.4 |
| 20260905231459 | 98 | 142 | 3.5 | 5.2 | 0.00 | 0.00 | 0.00 | 50 | 1003.4 |
| 20260905230958 | 98 | 133 | 2.6 | 5.2 | 0.00 | 0.00 | 0.00 | 50 | 1003.4 |
| 20260905230458 | 98 | 101 | 4.3 | 5.2 | 0.00 | 0.00 | 0.00 | 48 | 1003.3 |
| 20260905225958 | 98 | 153 | 3.5 | 5.2 | 0.00 | 0.00 | 0.00 | 48 | 1003.3 |
| 20260905225458 | 98 | 145 | 3.5 | 7.0 | 0.00 | 0.00 | 0.00 | 47 | 1003.3 |
| 20260905224958 | 98 | 181 | 3.5 | 7.8 | 0.00 | 0.00 | 0.00 | 47 | 1003.3 |
| 20260905224458 | 97 | 177 | 5.2 | 7.8 | 0.00 | 0.00 | 0.00 | 48 | 1003.3 |
| 20260905223958 | 97 | 180 | 6.1 | 7.0 | 0.00 | 0.00 | 0.00 | 48 | 1003.3 |
| 20260905223458 | 97 | 152 | 6.1 | 7.0 | 0.00 | 0.00 | 0.00 | 48 | 1003.3 |
| 20260905222958 | 96 | 140 | 3.5 | 6.1 | 0.00 | 0.00 | 0.00 | 48 | 1003.2 |
| 20260905222458 | 95 | 119 | 2.6 | 6.1 | 0.00 | 0.00 | 0.00 | 50 | 1003.3 |
| 20260905221958 | 94 | 159 | 4.3 | 5.2 | 0.00 | 0.00 | 0.00 | 51 | 1003.5 |
| 20260905221458 | 93 | 138 | 2.6 | 5.2 | 0.00 | 0.00 | 0.00 | 56 | 1003.6 |
| 20260905220958 | 92 | 120 | 2.6 | 5.2 | 0.00 | 0.00 | 0.00 | 58 | 1003.7 |
| 20260905220458 | 92 | 188 | 5.2 | 7.8 | 0.00 | 0.00 | 0.00 | 61 | 1003.9 |
| 20260905215958 | 91 | 144 | 4.3 | 9.6 | 0.00 | 0.00 | 0.00 | 61 | 1003.9 |
| 20260905215458 | 91 | 156 | 7.8 | 14.8 | 0.00 | 0.00 | 0.00 | 60 | 1004.0 |
| 20260905214958 | 92 | 127 | 4.3 | 14.8 | 0.00 | 0.00 | 0.00 | 58 | 1004.0 |
| 20260905214458 | 92 | 138 | 8.7 | 19.1 | 0.00 | 0.00 | 0.00 | 54 | 1004.0 |
| 20260905213958 | 93 | 126 | 5.2 | 19.1 | 0.00 | 0.00 | 0.00 | 52 | 1003.9 |
| 20260905213458 | 94 | 113 | 10.4 | 18.2 | 0.00 | 0.00 | 0.00 | 48 | 1003.9 |
| 20260905212958 | 95 | 95 | 7.8 | 25.2 | 0.00 | 0.00 | 0.00 | 47 | 1004.0 |
| 20260905212458 | 96 | 128 | 9.6 | 25.2 | 0.00 | 0.00 | 0.00 | 46 | 1003.9 |
| 20260905211958 | 98 | 108 | 12.2 | 25.2 | 0.00 | 0.00 | 0.00 | 42 | 1003.8 |
| 20260905211459 | 101 | 21 | 17.4 | 17.4 | 0.00 | 0.00 | 0.00 | 39 | 1003.6 |
| 20260905210958 | 100 | 37 | 2.6 | 7.0 | 0.00 | 0.00 | 0.00 | 36 | 1003.4 |
| 20260905210458 | 100 | 17 | 0.9 | 6.1 | 0.00 | 0.00 | 0.00 | 36 | 1003.4 |
| 20260905205958 | 100 | 360 | 2.6 | 8.7 | 0.00 | 0.00 | 0.00 | 38 | 1003.4 |
| 20260905205458 | 101 | 27 | 6.1 | 8.7 | 0.00 | 0.00 | 0.00 | 36 | 1003.4 |
| 20260905204958 | 102 | 29 | 6.1 | 11.3 | 0.00 | 0.00 | 0.00 | 35 | 1003.4 |
| 20260905204458 | 103 | 36 | 7.0 | 11.3 | 0.00 | 0.00 | 0.00 | 34 | 1003.5 |
| 20260905203958 | 102 | 62 | 4.3 | 6.1 | 0.00 | 0.00 | 0.00 | 35 | 1003.5 |
| 20260905203459 | 102 | 323 | 1.7 | 7.0 | 0.00 | 0.00 | 0.00 | 34 | 1003.6 |
| 20260905202958 | 105 | 338 | 6.1 | 7.8 | 0.00 | 0.00 | 0.00 | 35 | 1003.8 |
| 20260905202458 | 102 | 27 | 5.2 | 7.8 | 0.00 | 0.00 | 0.00 | 34 | 1003.9 |
| 20260905201958 | 102 | 288 | 5.2 | 7.8 | 0.00 | 0.00 | 0.00 | 36 | 1003.9 |
| 20260905201458 | 102 | 99 | 4.3 | 7.8 | 0.00 | 0.00 | 0.00 | 34 | 1004.0 |
| 20260905200958 | 101 | 14 | 4.3 | 9.6 | 0.00 | 0.00 | 0.00 | 35 | 1004.1 |
| 20260905200458 | 101 | 14 | 6.1 | 9.6 | 0.00 | 0.00 | 0.00 | 36 | 1004.2 |
| 20260905195958 | 102 | 54 | 7.0 | 10.4 | 0.00 | 0.00 | 0.00 | 35 | 1004.3 |
| 20260905195458 | 103 | 30 | 1.7 | 10.4 | 0.00 | 0.00 | 0.00 | 35 | 1004.5 |
| 20260905194958 | 102 | 51 | 5.2 | 9.6 | 0.00 | 0.00 | 0.00 | 37 | 1004.6 |
| 20260905194458 | 102 | 158 | 3.5 | 8.7 | 0.00 | 0.00 | 0.00 | 34 | 1004.6 |
| 20260905193958 | 102 | 78 | 5.2 | 8.7 | 0.00 | 0.00 | 0.00 | 34 | 1004.8 |
| 20260905193458 | 102 | 67 | 2.6 | 7.8 | 0.00 | 0.00 | 0.00 | 34 | 1004.7 |
| 20260905192959 | 102 | 49 | 2.6 | 7.8 | 0.00 | 0.00 | 0.00 | 34 | 1004.9 |
| 20260905192458 | 103 | 80 | 6.1 | 7.0 | 0.00 | 0.00 | 0.00 | 33 | 1004.9 |
| 20260905191958 | 105 | 189 | 1.7 | 5.2 | 0.00 | 0.00 | 0.00 | 41 | 1004.9 |
| 20260905191458 | 103 | 277 | 0.9 | 7.0 | 0.00 | 0.00 | 0.00 | 36 | 1005.0 |
| 20260905190958 | 104 | 327 | 2.6 | 7.0 | 0.00 | 0.00 | 0.00 | 39 | 1005.0 |
| 20260905190458 | 102 | 86 | 7.0 | 8.7 | 0.00 | 0.00 | 0.00 | 37 | 1005.1 |
| 20260905185958 | 101 | 339 | 4.3 | 10.4 | 0.00 | 0.00 | 0.00 | 37 | 1005.1 |
| 20260905185458 | 102 | 346 | 5.2 | 10.4 | 0.00 | 0.00 | 0.00 | 37 | 1005.2 |
| 20260905184958 | 103 | 297 | 4.3 | 8.7 | 0.00 | 0.00 | 0.00 | 41 | 1005.3 |
| 20260905184458 | 101 | 105 | 0.9 | 13.0 | 0.00 | 0.00 | 0.00 | 39 | 1005.4 |
| 20260905183958 | 102 | 359 | 3.5 | 13.0 | 0.00 | 0.00 | 0.00 | 38 | 1005.5 |
| 20260905183458 | 101 | 337 | 3.5 | 13.9 | 0.00 | 0.00 | 0.00 | 38 | 1005.6 |
| 20260905182958 | 101 | 291 | 5.2 | 13.9 | 0.00 | 0.00 | 0.00 | 38 | 1005.6 |
| 20260905182458 | 102 | 1 | 2.6 | 9.6 | 0.00 | 0.00 | 0.00 | 37 | 1005.7 |
| 20260905181958 | 103 | 7 | 4.3 | 7.8 | 0.00 | 0.00 | 0.00 | 37 | 1005.7 |
| 20260905181458 | 102 | 44 | 2.6 | 9.6 | 0.00 | 0.00 | 0.00 | 36 | 1005.7 |
| 20260905180958 | 104 | 66 | 0.9 | 9.6 | 0.00 | 0.00 | 0.00 | 39 | 1005.8 |
| 20260905180458 | 101 | 265 | 6.1 | 7.8 | 0.00 | 0.00 | 0.00 | 38 | 1005.9 |
| 20260905175958 | 101 | 43 | 4.3 | 7.8 | 0.00 | 0.00 | 0.00 | 40 | 1006.1 |
| 20260905175459 | 100 | 43 | 3.5 | 7.8 | 0.00 | 0.00 | 0.00 | 38 | 1006.1 |
| 20260905174958 | 100 | 26 | 3.5 | 8.7 | 0.00 | 0.00 | 0.00 | 41 | 1006.1 |
| 20260905174459 | 99 | 339 | 1.7 | 8.7 | 0.00 | 0.00 | 0.00 | 41 | 1006.1 |
| 20260905173958 | 99 | 299 | 5.2 | 7.8 | 0.00 | 0.00 | 0.00 | 42 | 1006.2 |
| 20260905173458 | 99 | 320 | 2.6 | 7.8 | 0.00 | 0.00 | 0.00 | 46 | 1006.4 |
| 20260905172958 | 98 | 287 | 3.5 | 8.7 | 0.00 | 0.00 | 0.00 | 44 | 1006.1 |
| 20260905172458 | 99 | 261 | 3.5 | 9.6 | 0.00 | 0.00 | 0.00 | 42 | 1006.3 |
| 20260905171958 | 99 | 317 | 7.0 | 9.6 | 0.00 | 0.00 | 0.00 | 39 | 1006.4 |
| 20260905171458 | 98 | 275 | 3.5 | 7.0 | 0.00 | 0.00 | 0.00 | 43 | 1006.4 |
| 20260905170958 | 98 | 331 | 6.1 | 7.0 | 0.00 | 0.00 | 0.00 | 43 | 1006.5 |
| 20260905170458 | 98 | 277 | 1.7 | 7.8 | 0.00 | 0.00 | 0.00 | 47 | 1006.6 |
| 20260905165958 | 99 | 278 | 5.2 | 8.7 | 0.00 | 0.00 | 0.00 | 42 | 1006.6 |
| 20260905165459 | 99 | 293 | 7.0 | 8.7 | 0.00 | 0.00 | 0.00 | 42 | 1006.7 |
| 20260905164958 | 99 | 334 | 8.7 | 8.7 | 0.00 | 0.00 | 0.00 | 44 | 1006.7 |
| 20260905164459 | 99 | 271 | 1.7 | 6.1 | 0.00 | 0.00 | 0.00 | 44 | 1006.7 |
| 20260905163958 | 98 | 344 | 2.6 | 7.8 | 0.00 | 0.00 | 0.00 | 43 | 1006.8 |
| 20260905163458 | 98 | 333 | 2.6 | 7.8 | 0.00 | 0.00 | 0.00 | 43 | 1006.8 |
| 20260905162958 | 98 | 356 | 4.3 | 10.4 | 0.00 | 0.00 | 0.00 | 43 | 1006.9 |
| 20260905162459 | 98 | 254 | 3.5 | 10.4 | 0.00 | 0.00 | 0.00 | 45 | 1006.9 |
| 20260905161958 | 112 | 311 | 5.2 | 8.7 | 0.00 | 0.00 | 0.00 | 57 | 1007.0 |
| 20260905161459 | 100 | 34 | 0.9 | 8.7 | 0.00 | 0.00 | 0.00 | 48 | 1007.0 |
| 20260905160958 | 100 | 14 | 6.1 | 7.8 | 0.00 | 0.00 | 0.00 | 49 | 1007.0 |
| 20260905160458 | 111 | 11 | 4.3 | 7.0 | 0.00 | 0.00 | 0.00 | 53 | 1007.0 |
| 20260905155958 | 99 | 291 | 3.5 | 7.0 | 0.00 | 0.00 | 0.00 | 50 | 1007.0 |